User: anonymous   Login
Location: Summit Observatory
(39.5293°N, 75.7290°W)
Time: 21:49:42
(UTC-05:00)
Language:

Gurwin Techsat 1B - Orbit

View from above orbital plane
View from above orbital plane
View from above satellite
View from above satellite

Ground track
Ground track

The orbit data is extracted from the following two-line orbital elements,

1 25397U 98043D   14325.48473175  .00000128  00000-0  74644-4 0  5024
2 25397 098.4923 277.7708 0001386 159.4412 321.0858 14.23485951850243
Epoch (UTC): 21 November 2014 11:38:00
Eccentricity: 0.0001386
inclination: 98.4923°
perigee height: 812 km
apogee height: 814 km
right ascension of ascending node: 277.7708°
argument of perigee: 159.4412°
revolutions per day: 14.23485951
mean anomaly at epoch: 321.0858°
orbit number at epoch: 85024

The dashed part of the orbit path shows where the satellite is in the earth's shadow,  

DLR